PDT,Max TemperatureF,Mean TemperatureF,Min TemperatureF,Max Dew PointF,MeanDew PointF,Min DewpointF,Max Humidity, Mean Humidity, Min Humidity, Max Sea Level PressureIn, Mean Sea Level PressureIn, Min Sea Level PressureIn, Max VisibilityMiles, Mean VisibilityMiles, Min VisibilityMiles, Max Wind SpeedMPH, Mean Wind SpeedMPH, Max Gust SpeedMPH,PrecipitationIn, CloudCover, Events, WindDirDegrees
2013-3-1,92,71,49,38,27,18,56,32,7,30.28,30.21,30.12,10,10,10,16,4,25,0.00,0,,82
2013-3-2,87,70,53,36,30,23,47,29,10,30.19,30.14,30.06,10,10,10,10,2,24,0.00,0,,185
2013-3-3,72,64,55,52,49,39,80,59,37,30.10,30.03,29.98,10,10,10,12,3,29,0.00,4,,175
2013-3-4,71,65,58,52,50,48,80,62,44,30.10,30.05,30.01,10,10,9,13,2,18,0.00,5,,200
2013-3-5,67,61,54,50,48,46,83,70,56,30.12,30.07,30.03,10,9,6,15,2,20,0.00,7,,194
2013-3-6,68,60,51,49,43,40,67,54,40,30.15,30.08,30.01,10,10,10,12,3,17,0.00,5,Rain,248
2013-3-7,65,61,56,52,48,42,86,67,48,30.01,29.97,29.85,10,10,3,12,5,21,T,7,Rain,146
2013-3-8,60,55,50,48,44,39,83,67,51,30.02,29.88,29.79,10,8,2,14,6,21,0.62,7,Rain,229
2013-3-9,66,59,52,47,45,39,77,60,43,30.21,30.11,30.03,10,10,10,13,2,16,0.00,3,,205
2013-3-10,78,62,46,47,39,31,77,48,18,30.25,30.19,30.14,10,10,10,10,3,17,0.00,0,,92
2013-3-11,78,64,49,52,42,36,75,48,21,30.18,30.11,30.04,10,10,9,9,3,20,0.00,0,,166
2013-3-12,82,66,49,52,47,42,83,59,35,30.08,30.04,29.99,10,9,7,8,2,10,0.00,0,,200
2013-3-13,83,68,52,54,50,42,86,56,26,30.11,30.06,30.00,10,7,2,8,3,10,0.00,1,,192
2013-3-14,84,69,54,55,51,45,93,62,30,30.09,30.06,29.99,10,4,0,8,2,12,0.00,4,Fog,205
2013-3-15,75,66,56,54,52,51,86,68,49,30.05,29.99,29.94,10,5,2,9,3,13,0.00,4,,191
2013-3-16,70,63,55,52,50,48,86,67,47,29.97,29.94,29.88,10,7,3,10,3,14,0.00,5,,185
2013-3-17,72,65,57,52,50,48,77,62,47,30.00,29.96,29.93,10,8,7,12,4,15,0.00,5,,180
2013-3-18,68,62,55,51,49,48,72,62,52,30.08,30.03,29.98,10,9,8,10,2,13,0.00,5,,190
2013-3-19,72,63,53,52,50,47,83,67,51,30.11,30.08,30.04,10,7,4,12,3,15,0.00,4,,182
2013-3-20,75,65,54,54,51,48,83,64,44,30.08,30.03,29.96,10,8,5,10,3,15,0.00,0,,210
2013-3-21,73,64,55,53,51,49,83,64,44,29.95,29.88,29.80,10,10,9,12,3,16,0.00,1,,179
2013-3-22,73,65,57,54,51,49,80,64,47,29.91,29.84,29.81,10,10,8,12,5,16,0.00,4,,150
2013-3-23,75,65,54,53,49,46,83,64,44,30.01,29.95,29.91,10,10,7,13,3,15,0.00,3,,167
2013-3-24,80,69,58,54,51,47,80,58,35,30.01,29.96,29.88,10,8,5,8,2,,0.00,3,,194
2013-3-25,78,67,56,54,53,48,93,66,38,29.97,29.93,29.88,10,6,0,10,3,13,0.00,4,Fog,158
2013-3-26,73,66,59,54,51,47,80,61,41,29.97,29.94,29.89,10,8,6,10,3,14,0.00,4,,189
2013-3-27,73,66,58,52,50,48,80,62,44,30.04,29.98,29.93,10,10,10,12,5,17,0.00,4,,178
2013-3-28,78,69,59,53,52,50,75,58,40,30.07,30.03,30.00,10,10,8,13,4,17,0.00,3,,77
2013-3-29,77,68,59,55,53,52,80,65,49,30.11,30.08,30.03,10,8,4,13,3,17,0.00,3,,187
2013-3-30,75,68,60,54,52,46,78,62,46,30.12,30.08,30.04,10,8,5,8,3,,0.00,3,,231
2013-3-31,73,66,59,54,53,51,78,66,53,30.13,30.09,30.05,10,10,10,13,4,18,0.00,7,,234